Year,Month,Day,Hour,Minute,Value (Times are PST for windgust in km/hr)
2011,05,16,00,03,3.20
2011,05,16,00,04,1.60
2011,05,16,00,05,1.60
2011,05,16,00,06,1.60
2011,05,16,00,55,6.40
2011,05,16,00,56,1.60
2011,05,16,00,57,1.60
2011,05,16,01,20,1.60
2011,05,16,01,21,3.20
2011,05,16,01,22,3.20
2011,05,16,02,21,1.60
2011,05,16,02,43,1.60
2011,05,16,02,44,1.60
2011,05,16,02,51,4.80
2011,05,16,02,53,3.20
2011,05,16,02,57,3.20
2011,05,16,02,58,1.60
2011,05,16,02,59,4.80
2011,05,16,03,00,3.20
2011,05,16,03,01,4.80
2011,05,16,03,02,6.40
2011,05,16,03,03,4.80
2011,05,16,03,04,4.80
2011,05,16,03,05,3.20
2011,05,16,03,06,1.60
2011,05,16,03,07,3.20
2011,05,16,03,08,4.80
2011,05,16,03,10,1.60
2011,05,16,03,11,3.20
2011,05,16,03,12,8.10
2011,05,16,03,13,6.40
2011,05,16,03,14,3.20
2011,05,16,03,16,1.60
2011,05,16,03,22,1.60
2011,05,16,03,27,3.20
2011,05,16,03,32,1.60
2011,05,16,03,34,1.60
2011,05,16,03,38,1.60
2011,05,16,03,39,3.20
2011,05,16,03,40,4.80
2011,05,16,03,41,1.60
2011,05,16,03,42,6.40
2011,05,16,03,43,3.20
2011,05,16,03,44,4.80
2011,05,16,03,45,6.40
2011,05,16,03,46,3.20
2011,05,16,03,47,4.80
2011,05,16,03,48,3.20
2011,05,16,03,49,6.40
2011,05,16,03,50,4.80
2011,05,16,03,51,3.20
2011,05,16,03,52,3.20
2011,05,16,03,53,3.20
2011,05,16,03,54,3.20
2011,05,16,03,55,3.20
2011,05,16,03,56,4.80
2011,05,16,03,57,3.20
2011,05,16,03,58,6.40
2011,05,16,03,59,4.80
2011,05,16,04,00,4.80
2011,05,16,04,01,6.40
2011,05,16,04,02,9.60
2011,05,16,04,03,9.60
2011,05,16,04,04,8.10
2011,05,16,04,05,8.10
2011,05,16,04,06,4.80
2011,05,16,04,07,4.80
2011,05,16,04,08,8.10
2011,05,16,04,09,8.10
2011,05,16,04,10,6.40
2011,05,16,04,11,8.10
2011,05,16,04,12,6.40
2011,05,16,04,13,9.60
2011,05,16,04,14,6.40
2011,05,16,04,15,6.40
2011,05,16,04,16,8.10
2011,05,16,04,17,6.40
2011,05,16,04,18,4.80
2011,05,16,04,19,6.40
2011,05,16,04,20,4.80
2011,05,16,04,21,9.60
2011,05,16,04,22,6.40
2011,05,16,04,23,6.40
2011,05,16,04,24,8.10
2011,05,16,04,25,4.80
2011,05,16,04,26,9.60
2011,05,16,04,27,8.10
2011,05,16,04,28,6.40
2011,05,16,04,29,6.40
2011,05,16,04,30,6.40
2011,05,16,04,31,6.40
2011,05,16,04,32,6.40
2011,05,16,04,33,8.10
2011,05,16,04,34,4.80
2011,05,16,04,35,8.10
2011,05,16,04,36,4.80
2011,05,16,04,37,4.80
2011,05,16,04,38,6.40
2011,05,16,04,39,4.80
2011,05,16,04,40,6.40
2011,05,16,04,41,4.80
2011,05,16,04,42,1.60
2011,05,16,04,43,3.20
2011,05,16,04,44,3.20
2011,05,16,04,45,1.60
2011,05,16,04,46,4.80
2011,05,16,04,47,1.60
2011,05,16,04,48,6.40
2011,05,16,04,49,4.80
2011,05,16,04,50,4.80
2011,05,16,04,51,3.20
2011,05,16,04,52,1.60
2011,05,16,04,53,1.60
2011,05,16,04,54,4.80
2011,05,16,04,55,6.40
2011,05,16,04,56,4.80
2011,05,16,04,57,6.40
2011,05,16,04,58,3.20
2011,05,16,04,59,3.20
2011,05,16,05,02,1.60
2011,05,16,05,43,1.60
2011,05,16,05,44,1.60
2011,05,16,05,48,3.20
2011,05,16,05,50,1.60
2011,05,16,05,56,1.60
2011,05,16,05,57,4.80
2011,05,16,05,58,1.60
2011,05,16,06,00,1.60
2011,05,16,06,01,1.60
2011,05,16,06,02,1.60
2011,05,16,06,04,1.60
2011,05,16,06,05,3.20
2011,05,16,06,06,6.40
2011,05,16,06,07,3.20
2011,05,16,06,08,4.80
2011,05,16,06,09,4.80
2011,05,16,06,10,1.60
2011,05,16,06,11,4.80
2011,05,16,06,12,3.20
2011,05,16,06,13,3.20
2011,05,16,06,17,1.60
2011,05,16,06,18,3.20
2011,05,16,06,19,1.60
2011,05,16,06,20,1.60
2011,05,16,06,21,1.60
2011,05,16,06,22,3.20
2011,05,16,06,33,4.80
2011,05,16,06,36,1.60
2011,05,16,06,40,1.60
2011,05,16,06,43,3.20
2011,05,16,06,44,6.40
2011,05,16,06,45,6.40
2011,05,16,06,46,6.40
2011,05,16,06,47,6.40
2011,05,16,06,48,8.10
2011,05,16,06,49,3.20
2011,05,16,06,50,3.20
2011,05,16,06,51,4.80
2011,05,16,06,52,6.40
2011,05,16,06,53,4.80
2011,05,16,06,54,4.80
2011,05,16,06,55,8.10
2011,05,16,06,56,8.10
2011,05,16,06,57,6.40
2011,05,16,06,58,4.80
2011,05,16,06,59,4.80
2011,05,16,07,00,4.80
2011,05,16,07,01,8.10
2011,05,16,07,02,4.80
2011,05,16,07,03,4.80
2011,05,16,07,04,4.80
2011,05,16,07,05,4.80
2011,05,16,07,06,3.20
2011,05,16,07,07,3.20
2011,05,16,07,08,4.80
2011,05,16,07,09,8.10
2011,05,16,07,10,8.10
2011,05,16,07,11,3.20
2011,05,16,07,12,1.60
2011,05,16,07,13,3.20
2011,05,16,07,14,1.60
2011,05,16,07,17,1.60
2011,05,16,07,24,1.60
2011,05,16,07,25,4.80
2011,05,16,07,26,4.80
2011,05,16,07,27,8.10
2011,05,16,07,28,6.40
2011,05,16,07,29,16.10
2011,05,16,07,30,6.40
2011,05,16,07,31,6.40
2011,05,16,07,32,6.40
2011,05,16,07,33,6.40
2011,05,16,07,34,6.40
2011,05,16,07,35,6.40
2011,05,16,07,36,4.80
2011,05,16,07,37,16.10
2011,05,16,07,38,9.60
2011,05,16,07,39,6.40
2011,05,16,07,40,6.40
2011,05,16,07,41,6.40
2011,05,16,07,42,8.10
2011,05,16,07,43,6.40
2011,05,16,07,44,8.10
2011,05,16,07,45,8.10
2011,05,16,07,46,8.10
2011,05,16,07,47,11.30
2011,05,16,07,48,8.10
2011,05,16,07,49,6.40
2011,05,16,07,50,8.10
2011,05,16,07,51,6.40
2011,05,16,07,52,6.40
2011,05,16,07,53,6.40
2011,05,16,07,54,6.40
2011,05,16,07,55,11.30
2011,05,16,07,56,8.10
2011,05,16,07,57,14.50
2011,05,16,07,58,4.80
2011,05,16,07,59,6.40
2011,05,16,08,00,9.60
2011,05,16,08,01,6.40
2011,05,16,08,02,9.60
2011,05,16,08,03,6.40
2011,05,16,08,04,9.60
2011,05,16,08,05,9.60
2011,05,16,08,06,9.60
2011,05,16,08,07,14.50
2011,05,16,08,08,8.10
2011,05,16,08,09,8.10
2011,05,16,08,10,9.60
2011,05,16,08,11,6.40
2011,05,16,08,12,6.40
2011,05,16,08,13,8.10
2011,05,16,08,14,6.40
2011,05,16,08,15,8.10
2011,05,16,08,16,6.40
2011,05,16,08,17,11.30
2011,05,16,08,18,8.10
2011,05,16,08,19,9.60
2011,05,16,08,20,11.30
2011,05,16,08,21,4.80
2011,05,16,08,22,4.80
2011,05,16,08,23,9.60
2011,05,16,08,24,9.60
2011,05,16,08,25,11.30
2011,05,16,08,26,6.40
2011,05,16,08,27,4.80
2011,05,16,08,28,6.40
2011,05,16,08,29,8.10
2011,05,16,08,30,4.80
2011,05,16,08,31,6.40
2011,05,16,08,32,8.10
2011,05,16,08,33,6.40
2011,05,16,08,34,6.40
2011,05,16,08,35,6.40
2011,05,16,08,36,4.80
2011,05,16,08,37,11.30
2011,05,16,08,38,8.10
2011,05,16,08,39,9.60
2011,05,16,08,40,8.10
2011,05,16,08,41,3.20
2011,05,16,08,42,4.80
2011,05,16,08,43,8.10
2011,05,16,08,44,8.10
2011,05,16,08,45,6.40
2011,05,16,08,46,6.40
2011,05,16,08,47,8.10
2011,05,16,08,48,6.40
2011,05,16,08,49,4.80
2011,05,16,08,50,8.10
2011,05,16,08,51,11.30
2011,05,16,08,52,8.10
2011,05,16,08,53,6.40
2011,05,16,08,54,1.60
2011,05,16,08,55,3.20
2011,05,16,08,56,4.80
2011,05,16,08,57,6.40
2011,05,16,08,58,8.10
2011,05,16,08,59,9.60
2011,05,16,09,00,11.30
2011,05,16,09,01,8.10
2011,05,16,09,02,6.40
2011,05,16,09,03,9.60
2011,05,16,09,04,8.10
2011,05,16,09,05,16.10
2011,05,16,09,06,9.60
2011,05,16,09,07,1.60
2011,05,16,09,08,9.60
2011,05,16,09,09,11.30
2011,05,16,09,10,9.60
2011,05,16,09,11,8.10
2011,05,16,09,12,8.10
2011,05,16,09,13,8.10
2011,05,16,09,14,11.30
2011,05,16,09,15,6.40
2011,05,16,09,16,6.40
2011,05,16,09,17,8.10
2011,05,16,09,18,8.10
2011,05,16,09,19,8.10
2011,05,16,09,20,11.30
2011,05,16,09,21,9.60
2011,05,16,09,22,6.40
2011,05,16,09,23,8.10
2011,05,16,09,24,8.10
2011,05,16,09,25,1.60
2011,05,16,09,26,4.80
2011,05,16,09,27,8.10
2011,05,16,09,28,9.60
2011,05,16,09,29,8.10
2011,05,16,09,30,11.30
2011,05,16,09,31,8.10
2011,05,16,09,32,4.80
2011,05,16,09,33,4.80
2011,05,16,09,34,4.80
2011,05,16,09,35,3.20
2011,05,16,09,36,4.80
2011,05,16,09,37,8.10
2011,05,16,09,38,11.30
2011,05,16,09,39,8.10
2011,05,16,09,40,9.60
2011,05,16,09,41,9.60
2011,05,16,09,42,9.60
2011,05,16,09,43,8.10
2011,05,16,09,44,9.60
2011,05,16,09,45,4.80
2011,05,16,09,46,11.30
2011,05,16,09,47,8.10
2011,05,16,09,48,6.40
2011,05,16,09,49,4.80
2011,05,16,09,50,8.10
2011,05,16,09,51,4.80
2011,05,16,09,52,3.20
2011,05,16,09,53,6.40
2011,05,16,09,54,9.60
2011,05,16,09,55,9.60
2011,05,16,09,56,8.10
2011,05,16,09,57,9.60
2011,05,16,09,58,8.10
2011,05,16,09,59,8.10
2011,05,16,10,00,6.40
2011,05,16,10,01,6.40
2011,05,16,10,02,3.20
2011,05,16,10,03,8.10
2011,05,16,10,04,6.40
2011,05,16,10,05,11.30
2011,05,16,10,06,4.80
2011,05,16,10,07,9.60
2011,05,16,10,08,8.10
2011,05,16,10,09,8.10
2011,05,16,10,10,6.40
2011,05,16,10,11,9.60
2011,05,16,10,12,6.40
2011,05,16,10,13,6.40
2011,05,16,10,14,16.10
2011,05,16,10,15,8.10
2011,05,16,10,16,14.50
2011,05,16,10,17,9.60
2011,05,16,10,18,9.60
2011,05,16,10,19,11.30
2011,05,16,10,20,9.60
2011,05,16,10,21,11.30
2011,05,16,10,22,8.10
2011,05,16,10,23,8.10
2011,05,16,10,24,6.40
2011,05,16,10,25,11.30
2011,05,16,10,26,8.10
2011,05,16,10,27,9.60
2011,05,16,10,28,6.40
2011,05,16,10,29,14.50
2011,05,16,10,30,9.60
2011,05,16,10,31,6.40
2011,05,16,10,32,4.80
2011,05,16,10,33,6.40
2011,05,16,10,34,9.60
2011,05,16,10,35,4.80
2011,05,16,10,36,4.80
2011,05,16,10,37,14.50
2011,05,16,10,38,14.50
2011,05,16,10,39,11.30
2011,05,16,10,40,9.60
2011,05,16,10,41,4.80
2011,05,16,10,42,8.10
2011,05,16,10,43,8.10
2011,05,16,10,44,8.10
2011,05,16,10,45,6.40
2011,05,16,10,46,6.40
2011,05,16,10,47,6.40
2011,05,16,10,48,4.80
2011,05,16,10,49,6.40
2011,05,16,10,50,3.20
2011,05,16,10,51,3.20
2011,05,16,10,52,3.20
2011,05,16,10,53,3.20
2011,05,16,10,54,4.80
2011,05,16,10,55,6.40
2011,05,16,10,56,3.20
2011,05,16,10,57,1.60
2011,05,16,10,58,4.80
2011,05,16,10,59,4.80
2011,05,16,11,00,1.60
2011,05,16,11,01,4.80
2011,05,16,11,02,3.20
2011,05,16,11,03,6.40
2011,05,16,11,04,8.10
2011,05,16,11,05,11.30
2011,05,16,11,06,9.60
2011,05,16,11,07,6.40
2011,05,16,11,08,8.10
2011,05,16,11,09,6.40
2011,05,16,11,10,4.80
2011,05,16,11,11,8.10
2011,05,16,11,12,6.40
2011,05,16,11,13,6.40
2011,05,16,11,14,4.80
2011,05,16,11,15,4.80
2011,05,16,11,16,1.60
2011,05,16,11,17,6.40
2011,05,16,11,18,3.20
2011,05,16,11,19,3.20
2011,05,16,11,20,6.40
2011,05,16,11,21,4.80
2011,05,16,11,22,4.80
2011,05,16,11,23,6.40
2011,05,16,11,24,4.80
2011,05,16,11,25,4.80
2011,05,16,11,26,6.40
2011,05,16,11,27,8.10
2011,05,16,11,28,6.40
2011,05,16,11,29,4.80
2011,05,16,11,30,8.10
2011,05,16,11,31,6.40
2011,05,16,11,32,8.10
2011,05,16,11,33,6.40
2011,05,16,11,34,16.10
2011,05,16,11,35,11.30
2011,05,16,11,36,8.10
2011,05,16,11,37,19.30
2011,05,16,11,38,14.50
2011,05,16,11,39,20.90
2011,05,16,11,40,11.30
2011,05,16,11,41,8.10
2011,05,16,11,42,8.10
2011,05,16,11,43,6.40
2011,05,16,11,44,4.80
2011,05,16,11,45,6.40
2011,05,16,11,46,9.60
2011,05,16,11,47,8.10
2011,05,16,11,48,17.70
2011,05,16,11,49,19.30
2011,05,16,11,50,11.30
2011,05,16,11,51,14.50
2011,05,16,11,52,6.40
2011,05,16,11,53,6.40
2011,05,16,11,54,4.80
2011,05,16,11,55,9.60
2011,05,16,11,56,17.70
2011,05,16,11,57,6.40
2011,05,16,11,58,6.40
2011,05,16,11,59,11.30
2011,05,16,12,00,11.30
2011,05,16,12,01,8.10
2011,05,16,12,02,9.60
2011,05,16,12,03,8.10
2011,05,16,12,04,11.30
2011,05,16,12,05,6.40
2011,05,16,12,06,6.40
2011,05,16,12,07,11.30
2011,05,16,12,08,9.60
2011,05,16,12,09,11.30
2011,05,16,12,10,11.30
2011,05,16,12,11,11.30
2011,05,16,12,12,14.50
2011,05,16,12,13,11.30
2011,05,16,12,14,12.90
2011,05,16,12,15,6.40
2011,05,16,12,16,8.10
2011,05,16,12,17,9.60
2011,05,16,12,18,12.90
2011,05,16,12,19,11.30
2011,05,16,12,20,11.30
2011,05,16,12,21,8.10
2011,05,16,12,22,11.30
2011,05,16,12,23,6.40
2011,05,16,12,24,8.10
2011,05,16,12,25,4.80
2011,05,16,12,26,9.60
2011,05,16,12,27,8.10
2011,05,16,12,28,4.80
2011,05,16,12,29,1.60
2011,05,16,12,30,1.60
2011,05,16,12,31,6.40
2011,05,16,12,32,8.10
2011,05,16,12,33,12.90
2011,05,16,12,34,8.10
2011,05,16,12,35,8.10
2011,05,16,12,36,4.80
2011,05,16,12,37,4.80
2011,05,16,12,38,3.20
2011,05,16,12,39,4.80
2011,05,16,12,40,14.50
2011,05,16,12,41,9.60
2011,05,16,12,42,1.60
2011,05,16,12,43,4.80
2011,05,16,12,44,14.50
2011,05,16,12,45,24.20
2011,05,16,12,46,19.30
2011,05,16,12,47,3.20
2011,05,16,12,48,8.10
2011,05,16,12,49,4.80
2011,05,16,12,50,4.80
2011,05,16,12,51,4.80
2011,05,16,12,52,8.10
2011,05,16,12,53,6.40
2011,05,16,12,54,9.60
2011,05,16,12,55,6.40
2011,05,16,12,56,6.40
2011,05,16,12,57,16.10
2011,05,16,12,58,14.50
2011,05,16,12,59,14.50
2011,05,16,13,00,8.10
2011,05,16,13,01,6.40
2011,05,16,13,02,14.50
2011,05,16,13,03,4.80
2011,05,16,13,04,8.10
2011,05,16,13,05,24.20
2011,05,16,13,06,12.90
2011,05,16,13,07,6.40
2011,05,16,13,08,4.80
2011,05,16,13,09,6.40
2011,05,16,13,10,9.60
2011,05,16,13,11,11.30
2011,05,16,13,12,17.70
2011,05,16,13,13,11.30
2011,05,16,13,14,11.30
2011,05,16,13,15,19.30
2011,05,16,13,16,11.30
2011,05,16,13,17,14.50
2011,05,16,13,18,19.30
2011,05,16,13,19,9.60
2011,05,16,13,20,11.30
2011,05,16,13,21,9.60
2011,05,16,13,22,6.40
2011,05,16,13,23,14.50
2011,05,16,13,24,14.50
2011,05,16,13,25,19.30
2011,05,16,13,26,11.30
2011,05,16,13,27,9.60
2011,05,16,13,28,14.50
2011,05,16,13,29,8.10
2011,05,16,13,30,8.10
2011,05,16,13,31,20.90
2011,05,16,13,32,12.90
2011,05,16,13,33,16.10
2011,05,16,13,34,16.10
2011,05,16,13,35,19.30
2011,05,16,13,36,11.30
2011,05,16,13,37,9.60
2011,05,16,13,38,16.10
2011,05,16,13,39,6.40
2011,05,16,13,40,4.80
2011,05,16,13,41,8.10
2011,05,16,13,42,9.60
2011,05,16,13,43,14.50
2011,05,16,13,44,9.60
2011,05,16,13,45,11.30
2011,05,16,13,46,19.30
2011,05,16,13,47,22.50
2011,05,16,13,48,8.10
2011,05,16,13,49,9.60
2011,05,16,13,50,12.90
2011,05,16,13,51,14.50
2011,05,16,13,52,20.90
2011,05,16,13,53,12.90
2011,05,16,13,54,16.10
2011,05,16,13,55,16.10
2011,05,16,13,56,8.10
2011,05,16,13,57,14.50
2011,05,16,13,58,8.10
2011,05,16,13,59,20.90
2011,05,16,14,00,22.50
2011,05,16,14,01,11.30
2011,05,16,14,02,9.60
2011,05,16,14,03,8.10
2011,05,16,14,04,11.30
2011,05,16,14,05,12.90
2011,05,16,14,06,16.10
2011,05,16,14,07,24.20
2011,05,16,14,08,11.30
2011,05,16,14,09,16.10
2011,05,16,14,10,25.70
2011,05,16,14,11,14.50
2011,05,16,14,12,14.50
2011,05,16,14,13,14.50
2011,05,16,14,14,11.30
2011,05,16,14,15,12.90
2011,05,16,14,16,20.90
2011,05,16,14,17,20.90
2011,05,16,14,18,19.30
2011,05,16,14,19,19.30
2011,05,16,14,20,11.30
2011,05,16,14,21,12.90
2011,05,16,14,22,24.20
2011,05,16,14,23,17.70
2011,05,16,14,24,24.20
2011,05,16,14,25,27.40
2011,05,16,14,26,20.90
2011,05,16,14,27,20.90
2011,05,16,14,28,22.50
2011,05,16,14,29,30.60
2011,05,16,14,30,29.00
2011,05,16,14,31,25.70
2011,05,16,14,32,22.50
2011,05,16,14,33,29.00
2011,05,16,14,34,30.60
2011,05,16,14,35,20.90
2011,05,16,14,36,16.10
2011,05,16,14,37,22.50
2011,05,16,14,38,16.10
2011,05,16,14,39,35.40
2011,05,16,14,40,25.70
2011,05,16,14,41,20.90
2011,05,16,14,42,22.50
2011,05,16,14,43,24.20
2011,05,16,14,44,19.30
2011,05,16,14,45,24.20
2011,05,16,14,46,16.10
2011,05,16,14,47,27.40
2011,05,16,14,48,17.70
2011,05,16,14,49,24.20
2011,05,16,14,50,22.50
2011,05,16,14,51,17.70
2011,05,16,14,52,22.50
2011,05,16,14,53,24.20
2011,05,16,14,54,17.70
2011,05,16,14,55,19.30
2011,05,16,14,56,20.90
2011,05,16,14,57,24.20
2011,05,16,14,58,25.70
2011,05,16,14,59,14.50
2011,05,16,15,00,22.50
2011,05,16,15,01,22.50
2011,05,16,15,02,19.30
2011,05,16,15,03,24.20
2011,05,16,15,04,22.50
2011,05,16,15,05,27.40
2011,05,16,15,06,22.50
2011,05,16,15,07,17.70
2011,05,16,15,08,27.40
2011,05,16,15,09,22.50
2011,05,16,15,10,30.60
2011,05,16,15,11,27.40
2011,05,16,15,12,22.50
2011,05,16,15,13,22.50
2011,05,16,15,14,25.70
2011,05,16,15,15,27.40
2011,05,16,15,16,19.30
2011,05,16,15,17,17.70
2011,05,16,15,18,27.40
2011,05,16,15,19,14.50
2011,05,16,15,20,17.70
2011,05,16,15,21,14.50
2011,05,16,15,22,20.90
2011,05,16,15,23,22.50
2011,05,16,15,24,19.30
2011,05,16,15,25,24.20
2011,05,16,15,26,20.90
2011,05,16,15,27,12.90
2011,05,16,15,28,14.50
2011,05,16,15,29,11.30
2011,05,16,15,30,29.00
2011,05,16,15,31,8.10
2011,05,16,15,32,22.50
2011,05,16,15,33,19.30
2011,05,16,15,34,16.10
2011,05,16,15,35,11.30
2011,05,16,15,36,24.20
2011,05,16,15,37,25.70
2011,05,16,15,38,16.10
2011,05,16,15,39,17.70
2011,05,16,15,40,19.30
2011,05,16,15,41,19.30
2011,05,16,15,42,22.50
2011,05,16,15,43,19.30
2011,05,16,15,44,19.30
2011,05,16,15,45,22.50
2011,05,16,15,46,22.50
2011,05,16,15,47,16.10
2011,05,16,15,48,11.30
2011,05,16,15,49,17.70
2011,05,16,15,50,16.10
2011,05,16,15,51,16.10
2011,05,16,15,52,9.60
2011,05,16,15,53,11.30
2011,05,16,15,54,19.30
2011,05,16,15,55,9.60
2011,05,16,15,56,11.30
2011,05,16,15,57,9.60
2011,05,16,15,58,20.90
2011,05,16,15,59,22.50
2011,05,16,16,00,14.50
2011,05,16,16,01,25.70
2011,05,16,16,02,20.90
2011,05,16,16,03,19.30
2011,05,16,16,04,17.70
2011,05,16,16,05,16.10
2011,05,16,16,06,40.20
2011,05,16,16,07,19.30
2011,05,16,16,08,20.90
2011,05,16,16,09,19.30
2011,05,16,16,10,29.00
2011,05,16,16,11,16.10
2011,05,16,16,12,22.50
2011,05,16,16,13,22.50
2011,05,16,16,14,22.50
2011,05,16,16,15,27.40
2011,05,16,16,16,20.90
2011,05,16,16,17,20.90
2011,05,16,16,18,22.50
2011,05,16,16,19,17.70
2011,05,16,16,20,17.70
2011,05,16,16,21,22.50
2011,05,16,16,22,20.90
2011,05,16,16,23,25.70
2011,05,16,16,24,19.30
2011,05,16,16,25,16.10
2011,05,16,16,26,14.50
2011,05,16,16,27,25.70
2011,05,16,16,28,25.70
2011,05,16,16,29,24.20
2011,05,16,16,30,22.50
2011,05,16,16,31,24.20
2011,05,16,16,32,24.20
2011,05,16,16,33,20.90
2011,05,16,16,34,24.20
2011,05,16,16,35,19.30
2011,05,16,16,36,17.70
2011,05,16,16,37,14.50
2011,05,16,16,38,22.50
2011,05,16,16,39,29.00
2011,05,16,16,40,17.70
2011,05,16,16,41,17.70
2011,05,16,16,42,20.90
2011,05,16,16,43,20.90
2011,05,16,16,44,22.50
2011,05,16,16,45,19.30
2011,05,16,16,46,19.30
2011,05,16,16,47,16.10
2011,05,16,16,48,20.90
2011,05,16,16,49,17.70
2011,05,16,16,50,19.30
2011,05,16,16,51,19.30
2011,05,16,16,52,17.70
2011,05,16,16,53,20.90
2011,05,16,16,54,19.30
2011,05,16,16,55,16.10
2011,05,16,16,56,24.20
2011,05,16,16,57,19.30
2011,05,16,16,58,17.70
2011,05,16,16,59,17.70
2011,05,16,17,00,16.10
2011,05,16,17,01,19.30
2011,05,16,17,02,19.30
2011,05,16,17,03,19.30
2011,05,16,17,04,19.30
2011,05,16,17,05,22.50
2011,05,16,17,06,22.50
2011,05,16,17,07,20.90
2011,05,16,17,08,24.20
2011,05,16,17,09,27.40
2011,05,16,17,10,25.70
2011,05,16,17,11,22.50
2011,05,16,17,12,20.90
2011,05,16,17,13,19.30
2011,05,16,17,14,20.90
2011,05,16,17,15,24.20
2011,05,16,17,16,22.50
2011,05,16,17,17,25.70
2011,05,16,17,18,24.20
2011,05,16,17,19,29.00
2011,05,16,17,20,25.70
2011,05,16,17,21,22.50
2011,05,16,17,22,25.70
2011,05,16,17,23,27.40
2011,05,16,17,24,29.00
2011,05,16,17,25,20.90
2011,05,16,17,26,24.20
2011,05,16,17,27,25.70
2011,05,16,17,28,22.50
2011,05,16,17,29,24.20
2011,05,16,17,30,32.20
2011,05,16,17,31,29.00
2011,05,16,17,32,24.20
2011,05,16,17,33,24.20
2011,05,16,17,34,25.70
2011,05,16,17,35,22.50
2011,05,16,17,36,22.50
2011,05,16,17,37,22.50
2011,05,16,17,38,20.90
2011,05,16,17,39,19.30
2011,05,16,17,40,25.70
2011,05,16,17,41,17.70
2011,05,16,17,42,25.70
2011,05,16,17,43,29.00
2011,05,16,17,44,24.20
2011,05,16,17,45,27.40
2011,05,16,17,46,24.20
2011,05,16,17,47,22.50
2011,05,16,17,48,20.90
2011,05,16,17,49,24.20
2011,05,16,17,50,22.50
2011,05,16,17,51,16.10
2011,05,16,17,52,25.70
2011,05,16,17,53,16.10
2011,05,16,17,54,22.50
2011,05,16,17,55,20.90
2011,05,16,17,56,20.90
2011,05,16,17,57,17.70
2011,05,16,17,58,19.30
2011,05,16,17,59,29.00
2011,05,16,18,00,22.50
2011,05,16,18,01,22.50
2011,05,16,18,02,22.50
2011,05,16,18,03,19.30
2011,05,16,18,04,19.30
2011,05,16,18,05,22.50
2011,05,16,18,06,20.90
2011,05,16,18,07,33.80
2011,05,16,18,08,46.70
2011,05,16,18,09,24.20
2011,05,16,18,10,19.30
2011,05,16,18,11,22.50
2011,05,16,18,12,20.90
2011,05,16,18,13,20.90
2011,05,16,18,14,17.70
2011,05,16,18,15,11.30
2011,05,16,18,16,22.50
2011,05,16,18,17,22.50
2011,05,16,18,18,17.70
2011,05,16,18,19,19.30
2011,05,16,18,20,19.30
2011,05,16,18,21,14.50
2011,05,16,18,22,17.70
2011,05,16,18,23,24.20
2011,05,16,18,24,24.20
2011,05,16,18,25,22.50
2011,05,16,18,26,24.20
2011,05,16,18,27,25.70
2011,05,16,18,28,24.20
2011,05,16,18,29,24.20
2011,05,16,18,30,25.70
2011,05,16,18,31,20.90
2011,05,16,18,32,16.10
2011,05,16,18,33,14.50
2011,05,16,18,34,14.50
2011,05,16,18,35,20.90
2011,05,16,18,36,20.90
2011,05,16,18,37,24.20
2011,05,16,18,38,29.00
2011,05,16,18,39,24.20
2011,05,16,18,40,22.50
2011,05,16,18,41,24.20
2011,05,16,18,42,27.40
2011,05,16,18,43,27.40
2011,05,16,18,44,25.70
2011,05,16,18,45,19.30
2011,05,16,18,46,20.90
2011,05,16,18,47,41.80
2011,05,16,18,48,22.50
2011,05,16,18,49,22.50
2011,05,16,18,50,16.10
2011,05,16,18,51,20.90
2011,05,16,18,52,25.70
2011,05,16,18,53,19.30
2011,05,16,18,54,25.70
2011,05,16,18,55,20.90
2011,05,16,18,56,17.70
2011,05,16,18,57,25.70
2011,05,16,18,58,19.30
2011,05,16,18,59,17.70
2011,05,16,19,00,14.50
2011,05,16,19,01,19.30
2011,05,16,19,02,20.90
2011,05,16,19,03,25.70
2011,05,16,19,04,22.50
2011,05,16,19,05,25.70
2011,05,16,19,06,16.10
2011,05,16,19,07,22.50
2011,05,16,19,08,16.10
2011,05,16,19,09,20.90
2011,05,16,19,10,9.60
2011,05,16,19,11,20.90
2011,05,16,19,12,19.30
2011,05,16,19,13,16.10
2011,05,16,19,14,20.90
2011,05,16,19,15,27.40
2011,05,16,19,16,22.50
2011,05,16,19,17,20.90
2011,05,16,19,18,22.50
2011,05,16,19,19,20.90
2011,05,16,19,20,17.70
2011,05,16,19,21,20.90
2011,05,16,19,22,17.70
2011,05,16,19,23,25.70
2011,05,16,19,24,17.70
2011,05,16,19,25,22.50
2011,05,16,19,26,17.70
2011,05,16,19,27,20.90
2011,05,16,19,28,17.70
2011,05,16,19,29,17.70
2011,05,16,19,30,11.30
2011,05,16,19,31,27.40
2011,05,16,19,32,19.30
2011,05,16,19,33,8.10
2011,05,16,19,34,9.60
2011,05,16,19,35,16.10
2011,05,16,19,36,8.10
2011,05,16,19,37,17.70
2011,05,16,19,38,8.10
2011,05,16,19,39,8.10
2011,05,16,19,40,9.60
2011,05,16,19,41,6.40
2011,05,16,19,42,6.40
2011,05,16,19,43,9.60
2011,05,16,19,44,9.60
2011,05,16,19,45,6.40
2011,05,16,19,46,8.10
2011,05,16,19,47,9.60
2011,05,16,19,48,6.40
2011,05,16,19,49,11.30
2011,05,16,19,50,8.10
2011,05,16,19,51,8.10
2011,05,16,19,52,8.10
2011,05,16,19,53,6.40
2011,05,16,19,54,9.60
2011,05,16,19,55,6.40
2011,05,16,19,56,9.60
2011,05,16,19,57,4.80
2011,05,16,19,58,9.60
2011,05,16,19,59,8.10
2011,05,16,20,00,6.40
2011,05,16,20,01,6.40
2011,05,16,20,02,6.40
2011,05,16,20,03,9.60
2011,05,16,20,04,4.80
2011,05,16,20,06,9.60
2011,05,16,20,07,6.40
2011,05,16,20,08,4.80
2011,05,16,20,09,1.60
2011,05,16,20,10,6.40
2011,05,16,20,11,4.80
2011,05,16,20,12,11.30
2011,05,16,20,13,14.50
2011,05,16,20,14,6.40
2011,05,16,20,15,6.40
2011,05,16,20,16,6.40
2011,05,16,20,17,11.30
2011,05,16,20,18,14.50
2011,05,16,20,19,9.60
2011,05,16,20,20,8.10
2011,05,16,20,21,19.30
2011,05,16,20,22,9.60
2011,05,16,20,23,16.10
2011,05,16,20,24,9.60
2011,05,16,20,25,6.40
2011,05,16,20,26,3.20
2011,05,16,20,27,16.10
2011,05,16,20,28,17.70
2011,05,16,20,29,11.30
2011,05,16,20,30,8.10
2011,05,16,20,31,11.30
2011,05,16,20,32,8.10
2011,05,16,20,33,3.20
2011,05,16,20,34,4.80
2011,05,16,20,35,6.40
2011,05,16,20,36,3.20
2011,05,16,20,37,3.20
2011,05,16,20,38,6.40
2011,05,16,20,39,1.60
2011,05,16,20,40,9.60
2011,05,16,20,41,8.10
2011,05,16,20,42,8.10
2011,05,16,20,43,14.50
2011,05,16,20,44,9.60
2011,05,16,20,45,9.60
2011,05,16,20,46,17.70
2011,05,16,20,47,11.30
2011,05,16,20,48,11.30
2011,05,16,20,49,16.10
2011,05,16,20,50,9.60
2011,05,16,20,51,8.10
2011,05,16,20,52,16.10
2011,05,16,20,53,16.10
2011,05,16,20,54,16.10
2011,05,16,20,55,8.10
2011,05,16,20,56,6.40
2011,05,16,20,57,14.50
2011,05,16,20,58,3.20
2011,05,16,21,00,4.80
2011,05,16,21,01,8.10
2011,05,16,21,02,4.80
2011,05,16,21,03,6.40
2011,05,16,21,05,3.20
2011,05,16,21,07,3.20
2011,05,16,21,08,1.60
2011,05,16,21,09,6.40
2011,05,16,21,10,1.60
2011,05,16,21,11,3.20
2011,05,16,21,12,4.80
2011,05,16,21,13,3.20
2011,05,16,21,15,1.60
2011,05,16,21,16,3.20
2011,05,16,21,17,6.40
2011,05,16,21,18,6.40
2011,05,16,21,19,1.60
2011,05,16,21,20,4.80
2011,05,16,21,21,6.40
2011,05,16,21,22,9.60
2011,05,16,21,23,9.60
2011,05,16,21,24,6.40
2011,05,16,21,25,6.40
2011,05,16,21,26,1.60
2011,05,16,21,27,8.10
2011,05,16,21,28,8.10
2011,05,16,21,29,12.90
2011,05,16,21,30,16.10
2011,05,16,21,31,9.60
2011,05,16,21,32,6.40
2011,05,16,21,33,4.80
2011,05,16,21,34,4.80
2011,05,16,21,35,6.40
2011,05,16,21,36,6.40
2011,05,16,21,37,4.80
2011,05,16,21,38,4.80
2011,05,16,21,39,8.10
2011,05,16,21,40,9.60
2011,05,16,21,41,8.10
2011,05,16,21,42,6.40
2011,05,16,21,43,8.10
2011,05,16,21,44,9.60
2011,05,16,21,45,4.80
2011,05,16,21,46,6.40
2011,05,16,21,47,8.10
2011,05,16,21,48,17.70
2011,05,16,21,49,14.50
2011,05,16,21,50,14.50
2011,05,16,21,51,14.50
2011,05,16,21,52,8.10
2011,05,16,21,53,11.30
2011,05,16,21,54,11.30
2011,05,16,21,55,11.30
2011,05,16,21,56,8.10
2011,05,16,21,57,9.60
2011,05,16,21,58,6.40
2011,05,16,21,59,4.80
2011,05,16,22,00,8.10
2011,05,16,22,01,6.40
2011,05,16,22,02,6.40
2011,05,16,22,03,8.10
2011,05,16,22,04,9.60
2011,05,16,22,05,11.30
2011,05,16,22,06,11.30
2011,05,16,22,07,9.60
2011,05,16,22,08,8.10
2011,05,16,22,09,8.10
2011,05,16,22,10,4.80
2011,05,16,22,11,4.80
2011,05,16,22,12,1.60